Weather History for Sterling, IL

Change the Weather History Date:

Wednesday, September 25, 2013

  Actual Average Record
Temperature  
Mean Temperature 64 °F -  
Max Temperature 78 °F 69 °F 86 °F (1999)
Min Temperature 50 °F 45 °F 35 °F (2001)
Degree Days  
Heating Degree Days 1    
Growing Degree Days 14 (Base 50)    
Moisture  
Dew Point 47 °F    
Average Humidity 63    
Maximum Humidity 88    
Minimum Humidity 19    
Precipitation  
Precipitation 0.00 in - - ()
Sea Level Pressure  
Sea Level Pressure 29.94 in    
Wind  
Wind Speed 8 mph (ENE)    
Max Wind Speed 13 mph    
Max Gust Speed 21 mph    
Visibility 9 miles    
Events      
Averages and records for this station are not official NWS values.
T = Trace of Precipitation, MM = Missing Value Source: NWS Daily Summary

Daily Weather History Graph

Daily Weather History Graph

Search for Another Location

Airport:

Trip Planner

Search our weather history database for the weather conditions in past years. The results will help you decide how hot, cold, wet, or windy it might be!

Date:

Astronomy

Sep. 25, 2013 Rise Set
Actual Time 6:49 AM CDT 6:50 PM CDT
Civil Twilight 6:21 AM CDT 7:17 PM CDT
Nautical Twilight 5:49 AM CDT 7:50 PM CDT
Astronomical Twilight 5:16 AM CDT 8:23 PM CDT
Moon 10:52 PM CDT (9/25) 12:59 PM CDT (9/25)
Length of Visible Light 12h 56m
Length of Day
12h 00m
Waning Gibbous, 64% of the Moon is Illuminated
Sep 25
Waning Gibbous
Sep 26
Last Quarter
Oct 4
New
Oct 11
First Quarter
Oct 18
Full

Hourly Weather History & Observations

Time (CDT) Temp. Dew Point Humidity Pressure Visibility Wind Dir Wind Speed Gust Speed Precip Events Conditions
12:15 AM 53.6 °F 48.2 °F 82% 29.95 in 10.0 mi ENE 6.9 mph - N/A   Clear
12:35 AM 53.6 °F 48.2 °F 82% 29.95 in 10.0 mi ENE 6.9 mph - N/A   Clear
12:55 AM 53.6 °F 48.2 °F 82% 29.95 in 10.0 mi ENE 6.9 mph - N/A   Clear
1:15 AM 53.6 °F 48.2 °F 82% 29.95 in 10.0 mi NE 6.9 mph - N/A   Clear
1:35 AM 53.6 °F 48.2 °F 82% 29.95 in 10.0 mi ENE 8.1 mph - N/A   Clear
1:55 AM 53.6 °F 48.2 °F 82% 29.95 in 10.0 mi ENE 6.9 mph - N/A   Clear
2:15 AM 53.6 °F 48.2 °F 82% 29.95 in 10.0 mi ENE 6.9 mph - N/A   Clear
2:35 AM 51.8 °F 48.2 °F 88% 29.94 in 10.0 mi ENE 5.8 mph - N/A   Clear
2:55 AM 51.8 °F 48.2 °F 88% 29.94 in 10.0 mi ENE 6.9 mph - N/A   Clear
3:15 AM 53.6 °F 48.2 °F 82% 29.93 in 10.0 mi ENE 6.9 mph - N/A   Clear
3:35 AM 51.8 °F 48.2 °F 88% 29.93 in 8.0 mi ENE 5.8 mph - N/A   Clear
3:55 AM 51.8 °F 48.2 °F 88% 29.93 in 7.0 mi ENE 6.9 mph - N/A   Clear
4:15 AM 51.8 °F 48.2 °F 88% 29.93 in 7.0 mi ENE 5.8 mph - N/A   Clear
4:35 AM 51.8 °F 48.2 °F 88% 29.93 in 7.0 mi ENE 4.6 mph - N/A   Clear
4:55 AM 51.8 °F 46.4 °F 82% 29.93 in 5.0 mi ENE 6.9 mph - N/A   Clear
5:15 AM 50.0 °F 46.4 °F 87% 29.93 in 5.0 mi ENE 6.9 mph - N/A   Clear
5:35 AM 51.8 °F 48.2 °F 88% 29.93 in 5.0 mi ENE 6.9 mph - N/A   Clear
5:55 AM 51.8 °F 46.4 °F 82% 29.94 in 5.0 mi ENE 6.9 mph - N/A   Clear
6:15 AM 50.0 °F 46.4 °F 87% 29.94 in 5.0 mi ENE 5.8 mph - N/A   Clear
6:35 AM 51.8 °F 48.2 °F 88% 29.95 in 5.0 mi NE 6.9 mph - N/A   Clear
6:55 AM 51.8 °F 48.2 °F 88% 29.95 in 4.0 mi NE 5.8 mph - N/A   Clear
7:15 AM 51.8 °F 48.2 °F 88% 29.96 in 4.0 mi NE 4.6 mph - N/A   Clear
7:35 AM 53.6 °F 48.2 °F 82% 29.96 in 5.0 mi NE 5.8 mph - N/A   Clear
7:55 AM 55.4 °F 48.2 °F 77% 29.96 in 6.0 mi NE 6.9 mph - N/A   Clear
8:15 AM 55.4 °F 50.0 °F 82% 29.96 in 7.0 mi NE 9.2 mph - N/A   Clear
8:35 AM 57.2 °F 51.8 °F 82% 29.97 in 8.0 mi ENE 8.1 mph - N/A   Clear
8:55 AM 60.8 °F 51.8 °F 72% 29.97 in 9.0 mi ENE 9.2 mph - N/A   Clear
9:15 AM 62.6 °F 51.8 °F 68% 29.97 in 10.0 mi ENE 11.5 mph - N/A   Clear
9:35 AM 62.6 °F 51.8 °F 68% 29.97 in 10.0 mi ENE 10.4 mph - N/A   Clear
9:55 AM 64.4 °F 51.8 °F 64% 29.97 in 10.0 mi ENE 9.2 mph - N/A   Clear
10:15 AM 68.0 °F 53.6 °F 60% 29.97 in 10.0 mi ENE 10.4 mph - N/A   Clear
10:35 AM 69.8 °F 51.8 °F 53% 29.97 in 10.0 mi East 10.4 mph - N/A   Clear
10:55 AM 71.6 °F 48.2 °F 43% 29.97 in 10.0 mi ENE 12.7 mph - N/A   Clear
11:15 AM 71.6 °F 50.0 °F 46% 29.97 in 10.0 mi ENE 12.7 mph - N/A   Clear
11:35 AM 73.4 °F 39.2 °F 29% 29.97 in 10.0 mi East 10.4 mph 16.1 mph N/A   Clear
11:55 AM 73.4 °F 50.0 °F 44% 29.96 in 10.0 mi East 9.2 mph - N/A   Clear
12:15 PM 75.2 °F 30.2 °F 19% 29.96 in 10.0 mi ENE 8.1 mph - N/A   Clear
12:35 PM 75.2 °F 50.0 °F 41% 29.96 in 10.0 mi NNE 5.8 mph - N/A   Clear
12:55 PM 75.2 °F 44.6 °F 34% 29.95 in 10.0 mi ENE 9.2 mph 20.7 mph N/A   Clear
1:15 PM 75.2 °F 48.2 °F 38% 29.94 in 10.0 mi East 9.2 mph - N/A   Clear
1:35 PM 75.2 °F 50.0 °F 41% 29.93 in 10.0 mi ENE 11.5 mph - N/A   Clear
1:55 PM 77.0 °F 48.2 °F 36% 29.93 in 10.0 mi ENE 8.1 mph - N/A   Clear
2:15 PM 77.0 °F 48.2 °F 36% 29.93 in 10.0 mi NNE 3.5 mph - N/A   Clear
2:35 PM 77.0 °F 46.4 °F 34% 29.92 in 10.0 mi NE 8.1 mph - N/A   Clear
2:55 PM 77.0 °F 46.4 °F 34% 29.92 in 10.0 mi East 6.9 mph - N/A   Clear
3:15 PM 78.8 °F 44.6 °F 30% 29.92 in 10.0 mi SE 5.8 mph - N/A   Clear
3:35 PM 77.0 °F 46.4 °F 34% 29.91 in 10.0 mi North 8.1 mph - N/A   Clear
3:55 PM 77.0 °F 48.2 °F 36% 29.91 in 10.0 mi ENE 8.1 mph - N/A   Clear
4:15 PM 77.0 °F 46.4 °F 34% 29.91 in 10.0 mi NE 9.2 mph - N/A   Clear
4:35 PM 77.0 °F 48.2 °F 36% 29.91 in 10.0 mi NE 9.2 mph - N/A   Clear
4:55 PM 75.2 °F 48.2 °F 38% 29.91 in 10.0 mi East 6.9 mph - N/A   Clear
5:15 PM 75.2 °F 48.2 °F 38% 29.91 in 10.0 mi ENE 9.2 mph - N/A   Clear
5:35 PM 73.4 °F 48.2 °F 41% 29.91 in 10.0 mi ENE 8.1 mph - N/A   Clear
5:55 PM 73.4 °F 48.2 °F 41% 29.91 in 10.0 mi ENE 8.1 mph - N/A   Clear
6:15 PM 71.6 °F 48.2 °F 43% 29.92 in 10.0 mi ENE 6.9 mph - N/A   Clear
6:35 PM 66.2 °F 46.4 °F 49% 29.92 in 10.0 mi ENE 5.8 mph - N/A   Clear
6:55 PM 64.4 °F 46.4 °F 52% 29.93 in 10.0 mi ENE 6.9 mph - N/A   Clear
7:15 PM 60.8 °F 42.8 °F 52% 29.93 in 10.0 mi ENE 8.1 mph - N/A   Clear
7:35 PM 60.8 °F 46.4 °F 59% 29.93 in 10.0 mi ENE 9.2 mph - N/A   Clear
7:55 PM 60.8 °F 48.2 °F 63% 29.94 in 10.0 mi ENE 10.4 mph - N/A   Clear
8:15 PM 60.8 °F 41.0 °F 48% 29.94 in 10.0 mi ENE 10.4 mph - N/A   Clear
8:35 PM 59.0 °F 48.2 °F 67% 29.95 in 10.0 mi ENE 10.4 mph - N/A   Clear
8:55 PM 59.0 °F 48.2 °F 67% 29.95 in 10.0 mi East 10.4 mph - N/A   Clear
9:15 PM 57.2 °F 48.2 °F 72% 29.95 in 10.0 mi East 9.2 mph - N/A   Clear
9:35 PM 57.2 °F 46.4 °F 67% 29.95 in 10.0 mi ENE 10.4 mph - N/A   Clear
9:55 PM 55.4 °F 48.2 °F 77% 29.95 in 10.0 mi ENE 10.4 mph - N/A   Clear
10:15 PM 55.4 °F 44.6 °F 67% 29.96 in 10.0 mi East 9.2 mph - N/A   Clear
10:35 PM 53.6 °F 42.8 °F 67% 29.97 in 10.0 mi ENE 8.1 mph - N/A   Clear
10:55 PM 53.6 °F 44.6 °F 72% 29.97 in 10.0 mi East 8.1 mph - N/A   Clear
11:15 PM 53.6 °F 46.4 °F 77% 29.97 in 10.0 mi East 8.1 mph - N/A   Clear
11:35 PM 51.8 °F 46.4 °F 82% 29.97 in 10.0 mi ENE 6.9 mph - N/A   Clear
11:55 PM 51.8 °F 46.4 °F 82% 29.97 in 10.0 mi ENE 6.9 mph - N/A   Clear